This is the latest recevied weather packets stored in our database for station/object N3SBK. If no packets are shown the sender has not sent any weather packets the latest 10 day(s).
| Time | Temp. | Humidity | Pressure | Rain* | Wind** | Luminosity | Snow |
|---|---|---|---|---|---|---|---|
| 1777902286 | 13.89° C | 49% | 1003.3 hPa | 0 mm | - | 137 W/m² | - |
| 1777901983 | 13.33° C | 50% | 1003.3 hPa | 0 mm | - | 163 W/m² | - |
| 1777901681 | 12.78° C | 51% | 1003.1 hPa | 0 mm | - | 74 W/m² | - |
| 1777901378 | 12.78° C | 51% | 1003.3 hPa | 0 mm | - | 80 W/m² | - |
| 1777901076 | 12.78° C | 50% | 1003.4 hPa | 0 mm | - | 81 W/m² | - |
| 1777900773 | 12.78° C | 52% | 1003.3 hPa | 0 mm | - | 85 W/m² | - |
| 1777900470 | 12.78° C | 52% | 1003.3 hPa | 0 mm | - | 99 W/m² | - |
| 1777900167 | 12.22° C | 52% | 1003.2 hPa | 0 mm | - | 106 W/m² | - |
| 1777899863 | 12.22° C | 56% | 1003 hPa | 0 mm | - | 99 W/m² | - |
| 1777899560 | 11.67° C | 55% | 1003.3 hPa | 0 mm | - | 111 W/m² | - |
| 1777899258 | 11.67° C | 56% | 1003.4 hPa | 0 mm | - | 60 W/m² | - |
| 1777898955 | 11.67° C | 55% | 1003.2 hPa | 0 mm | - | 54 W/m² | - |
| 1777898652 | 11.67° C | 55% | 1003.2 hPa | 0 mm | - | 72 W/m² | - |
| 1777898349 | 11.67° C | 57% | 1003.2 hPa | 0 mm | - | 71 W/m² | - |
| 1777898047 | 11.67° C | 56% | 1003.2 hPa | 0 mm | - | 76 W/m² | - |
| 1777897743 | 11.67° C | 58% | 1003.2 hPa | 0 mm | - | 85 W/m² | - |
| 1777897439 | 11.11° C | 58% | 1003.1 hPa | 0 mm | - | 87 W/m² | - |
| 1777897135 | 11.11° C | 57% | 1003.1 hPa | 0 mm | - | 61 W/m² | - |
| 1777896832 | 10.56° C | 58% | 1003.1 hPa | 0 mm | - | 50 W/m² | - |
| 1777896529 | 10.56° C | 58% | 1003.2 hPa | 0 mm | - | 62 W/m² | - |
| 1777896226 | 10.56° C | 59% | 1003.3 hPa | 0 mm | - | 58 W/m² | - |
| 1777895924 | 10° C | 58% | 1003 hPa | 0 mm | - | 64 W/m² | - |
| 1777895621 | 10° C | 57% | 1003.3 hPa | 0 mm | - | 58 W/m² | - |
| 1777895318 | 10° C | 57% | 1003.3 hPa | 0 mm | - | 43 W/m² | - |
| 1777895016 | 10° C | 59% | 1003.4 hPa | 0 mm | - | 38 W/m² | - |
* Rain latest hour (hover to see other rain measurements)
** Current wind speed in m/s (hover to see current wind gust speed)